Regional Weather Roundup
Issued by NWS

Home | Current Version | Previous Version | Text Only | Print | Product List | Glossary On
Versions: 1 2 3 4 5 6 7 8 9 10 11 12 13 14 15 16 17 18 19 20 21 22 23 24 25 26 27 28 29 30 31 32 33 34 35 36 37 38 39 40 41 42 43 44 45 46 47 48 49 50
000
ASUS45 KBOI 070210
RWRID
WEATHER ROUNDUP FOR IDAHO
NATIONAL WEATHER SERVICE BOISE ID
800 PM MDT WED MAY 06 2015

NOTE: "FAIR" INDICATES FEW OR NO CLOUDS BELOW 12000 FEET
WITH NO SIGNIFICANT WEATHER AND/OR OBSTRUCTIONS TO VISIBILITY

IDZ012-014-070300-
SOUTHWEST IDAHO


CITY           SKY/WX    TMP DP  RH WIND       PRES   REMARKS
BOISE          PTCLDY    61  17  18 NW14      29.77S
CALDWELL       PTCLDY    59  27  29 NW22      29.80S
MOUNTAIN HOME  MOCLDY    60  19  20 NW20      29.77R
$$

IDZ016-017-070300-
SOUTHCENTRAL IDAHO


CITY           SKY/WX    TMP DP  RH WIND       PRES   REMARKS
BURLEY         CLOUDY    52  35  52 S7        29.76S
JEROME         CLOUDY    55  21  26 SW14      29.76S
TWIN FALLS     MOCLDY    55  23  28 NW10      29.76R
$$

IDZ019>023-070300-
SOUTHEAST IDAHO


CITY           SKY/WX    TMP DP  RH WIND       PRES   REMARKS
IDAHO FALLS    CLOUDY    54  42  64 NW6       29.74R
POCATELLO      CLOUDY    52  42  69 SW12      29.77R
REXBURG        CLOUDY    54  37  52 N7        29.74R
$$

IDZ006-010-011-018-031-032-070300-
CENTRAL IDAHO MOUNTAINS


CITY           SKY/WX    TMP DP  RH WIND       PRES   REMARKS
MCCALL         CLOUDY    44  31  60 N16       29.84R
HAILEY         MOCLDY    52  32  46 SE12      29.76S
STANLEY          N/A     45  27  49 NW5       29.82R
SALMON         CLOUDY    52  39  62 SE15      29.79R
CHALLIS        LGT RAIN  52  32  46 NW13      29.76R
$$

IDZ002-004-006-007-026-070300-
NORTHERN IDAHO


CITY           SKY/WX    TMP DP  RH WIND       PRES   REMARKS
LEWISTON       MOCLDY    62  28  27 NW10      29.87S
LOWELL           N/A     58  37  45 CALM      29.87R
COEUR D`ALENE  CLEAR     59  28  31 N7        29.91R
MULLAN PASS    MOCLDY    40  20  44 N5        29.91R
$$


USA.gov is the U.S. government's official web portal to all federal, state and local government web resources and services.